Location: *
(37.9500°N, 27.3666°E)
Time: 04:01:12
(UTC+00:00)

Cosmos 2333 Rocket - Pass Details

Date: 24 October 2021
Orbit: 837 x 865 km, 70.8° (Epoch: 03 December)

Event Time Altitude Azimuth Distance (km) Brightness Sun altitude
Rises 16:35:47 0° 175° (S) 3,376 5.3 -15.4°
Reaches altitude 10° 16:38:24 10° 166° (SSE) 2,449 4.5 -15.9°
Maximum altitude 16:43:23 33° 104° (ESE) 1,377 2.8 -16.9°
Enters shadow 16:45:24 26° 67° (ENE) 1,608 3.1 -17.3°
